Location: *
(49.4547°N, 7.9131°E)
Time: 15:36:22
(UTC+00:00)

USA 186 - Pass Details

Date: 22 September 2019
Orbit: 261 x 450 km, 96.9° (Epoch: 07 October)

Event Time Altitude Azimuth Distance (km) Brightness Sun altitude
Exits shadow 18:05:08 - 128° (SE) 1,906 4.5 -7.0°
Reaches altitude 10° 18:06:02 10° 121° (ESE) 1,588 4.1 -7.1°
Maximum altitude 18:08:46 23° 68° (ENE) 1,017 3.2 -7.6°
Drops below altitude 10° 18:11:32 10° 14° (NNE) 1,587 4.6 -8.0°
Sets 18:13:49 0° 360° (N) 2,449 5.8 -8.4°
